Location: Asheville, NC
(35.6000°N, 82.5500°W)
Time: 09:18:46
(UTC-05:00)

XW-2C - Pass Details

Date: 07 January 2018
Orbit: 510 x 531 km, 97.5° (Epoch: 21 January)

Event Time Altitude Azimuth Distance (km) Brightness Sun altitude
Rises 18:07:00 0° 177° (S) 2,652 ? -7.1°
Reaches altitude 10° 18:09:08 10° 182° (S) 1,769 ? -7.5°
Maximum altitude 18:12:52 53° 260° (W) 655 ? -8.2°
Drops below altitude 10° 18:16:39 10° 338° (NNW) 1,783 ? -8.9°
Sets 18:18:48 0° 343° (NNW) 2,676 ? -9.3°
